Regional Weather Roundup
Issued by NWS Midland/Odessa, TX

Skip options and go directly to product.
Home | Oldest Version | Next Version | Current Version | All | Text Only | Save Text | Print | Product List | Glossary On

Skip product version selection by date and time.   
905
ASUS44 KMAF 262302
RWRMAF
MIDLAND AREA WEATHER ROUNDUP
NATIONAL WEATHER SERVICE MIDLAND TX
500 PM CST WED NOV 26 2014

...IN SOUTHWEST TEXAS AND SOUTHEAST NEW MEXICO...

CITY           SKY/WX    TMP DP  RH WIND       PRES   REMARKS
ALPINE         CLEAR     67  20  16 SW8       30.31S
ANDREWS        FAIR      59  28  31 E5        30.26S
ARTESIA        NOT AVBL
BIG SPRING     CLEAR     61  30  30 NE6       30.27R
CARLSBAD       CLEAR     67  21  17 E7        30.21R
DRYDEN           N/A     73  13  10 SW9       30.19R
FORT STOCKTON  CLEAR     67  18  15 NE6       30.23R
GUAD PASS      NOT AVBL
HOBBS          CLEAR     57  27  30 E3        30.27R
MARFA          CLEAR     63  18  17 W13       30.29S
MIDLAND AIRPK  CLEAR     60  29  30 NE5       30.26R
MIDLAND INTL   CLEAR     60  28  29 NE8       30.26R
ODESSA         CLEAR     60  23  24 NE7       30.26R
PECOS          CLEAR     70  23  16 NE8       30.20R
PRESIDIO       FAIR      68  19  15 S5        30.24S
SEMINOLE       CLEAR     58  28  32 CALM      30.27R
SNYDER         CLEAR     57  32  38 NE6       30.27R
WINK           CLEAR     67  19  16 NE9       30.21R
$$
...OTHER STATIONS IN TEXAS...

CITY           SKY/WX    TMP DP  RH WIND       PRES   REMARKS
ABILENE        CLEAR     58  34  40 N8        30.26R
AMARILLO       PTCLDY    49  23  36 NE7       30.29R
AUSTIN         CLEAR     70  34  26 NW6       30.17R
BROWNSVILLE    CLEAR     69  48  47 S8        30.24R
CORPUS CHRISTI CLEAR     70  46  42 SW6       30.21R
DALLAS FTW     PTCLDY    60  34  37 N10       30.23R
DEL RIO        CLEAR     72  27  18 S5        30.18R
EL PASO        SUNNY     66  19  16 S3        30.26S
HOUSTON INT    CLEAR     69  37  30 SW8       30.19R
LUBBOCK        PTCLDY    56  26  31 NE6       30.26S
SAN ANGELO     CLEAR     63  31  30 NE14      30.24R
SAN ANTONIO    CLEAR     72  33  24 S9        30.18S
WACO           CLEAR     63  31  30 NE9       30.21R
WICHITA FALLS  NOT AVBL
$$
...OTHER LOCATIONS IN NEW MEXICO...

CITY           SKY/WX    TMP DP  RH WIND       PRES   REMARKS
ALAMAGORDO     CLEAR     64  19  17 N14       30.27S
ALBUQUERQUE    PTCLDY    59  22  24 VRB5      30.31F
CANNON AFB     CLEAR     54  27  35 SE6       30.26R
CLOVIS         CLEAR     52  27  37 SE3       30.27R
HOLLOMAN AFB   PTCLDY    64  21  19 N13       30.26S
ROSWELL        CLEAR     65  23  20 SE10      30.22R
RUIDOSO        CLEAR     52  21  30 W10       30.36R
SANTA FE       CLEAR     53  18  25 CALM      30.33R
TRUTH OR CONSE SUNNY     64  20  18 CALM      30.29S
TUCUMCARI      CLEAR     53  27  36 E5        30.23S
$$

USA.gov is the U.S. government's official web portal to all federal, state and local government web resources and services.